Regional Weather Roundup
Issued by NWS State College, PA

Home | Current Version | Previous Version | Text Only | Print | Product List | Glossary On
Versions: 1 2 3 4 5 6 7 8 9 10 11 12 13 14 15 16 17 18 19 20 21 22 23 24 25 26 27 28 29 30 31 32 33 34 35 36 37 38 39 40 41 42 43 44 45 46 47 48 49 50
000
ASUS41 KCTP 261403
RWRCTP

REGIONAL WEATHER ROUNDUP
NATIONAL WEATHER SERVICE STATE COLLEGE PA
1000 AM EDT FRI AUG 26 2016

Note: "fair" indicates few or no clouds below 12,000 feet with no
significant weather and/or obstructions to visibility.

* = STATION THAT DOES NOT REPORT PRECIPITATION /E.G. RAIN...SNOW...ETC/
    THUNDER OR FOG.

PAZ002>004-007>009-013>016-020>023-029>032-261500-
WESTERN PENNSYLVANIA

CITY           SKY/WX    TMP DP  RH WIND       PRES   REMARKS
ERIE           MOSUNNY   77  69  76 SW6       30.12R
MEADVILLE      MOSUNNY   73  66  78 W6        30.15S
FRANKLIN*        N/A     73  66  78 W7        30.17R
NEW CASTLE     CLOUDY    75  70  84 NW3       30.16R
BEAVER COUNTY  CLOUDY    75  70  83 W3        30.16S
BUTLER*        NOT AVBL
PITTSBURGH INT MOSUNNY   77  69  76 NW7       30.15R
PITTSBURGH     MOSUNNY   78  70  76 CALM      30.14S
INDIANA*       CLOUDY    75  72  88 NW6       30.18R
LATROBE        PTSUNNY   77  73  88 W7        30.16R
WASHINGTON CO* MOSUNNY   79  70  73 W3        30.16S
$$

PAZ004>006-010>012-017>019-024>028-033>037-041-042-045-046-049>053-261500-
CENTRAL PENNSYLVANIA

CITY           SKY/WX    TMP DP  RH WIND       PRES   REMARKS
BRADFORD       PTSUNNY   73  67  81 NW9       30.17R
DUBOIS         CLOUDY    74  69  85 W8        30.15S
CLEARFIELD     PTSUNNY   76  70  82 NW7       30.15R
JOHNSTOWN      MOSUNNY   73  69  87 NW10      30.19R
ALTOONA        MOSUNNY   78  70  76 NW7       30.15S
STATE COLLEGE  PTSUNNY   77  70  78 W5        30.12S
WILLIAMSPORT   MOSUNNY   83  67  58 VRB7      30.05S
SELINSGROVE    PTSUNNY   83  73  72 NW5       30.07S
FT INDIANTOWN  MOSUNNY   82  71  68 VRB5      30.06R
CAPITAL CITY   MOSUNNY   85  70  60 W14       30.06S
HARRISBURG     MOSUNNY   84  73  69 NW10      30.05S
YORK           MOSUNNY   84  70  62 NW10G18   30.07S
$$

PAZ038>040-043-044-047-048-054-055-060>062-067>071-261500-
EASTERN PENNSYLVANIA

CITY           SKY/WX    TMP DP  RH WIND       PRES   REMARKS
SCRANTON       CLOUDY    78  71  79 W6        30.07R
MOUNT POCONO   PTSUNNY   74  66  76 NW16G26   30.10R
ALLENTOWN      SUNNY     83  70  64 NW9G17    30.03S
QUAKERTOWN*    SUNNY     82  72  69 CALM      30.05S
READING        MOSUNNY   83  71  67 NW8       30.04S
LANCASTER      SUNNY     83  74  74 NW12      30.05F
COATESVILLE    SUNNY     82  73  74 NW12      30.08S
POTTSTOWN      SUNNY     82  73  74 NW9       30.05S
BLUE BELL      SUNNY     81  72  74 W9        30.03S
DOYLESTOWN     SUNNY     86  72  62 NW7       30.02S
WILLOW GROVE   NOT AVBL
NORTH PHILA    SUNNY     87  73  62 W9G17     30.03S
PHILADELPHIA   MOSUNNY   86  70  58 NW13      30.02S
$$



USA.gov is the U.S. government's official web portal to all federal, state and local government web resources and services.